Cordova, AK

12:27 AM AKST on February 24, 2017 (GMT -0900)
Cordova-Smith

Weather History for PACV - October, 2013

Change the Weather History Date:

Wednesday, October 2, 2013

  Actual Average Record
Temperature  
Mean Temperature 46 °F -  
Max Temperature 51 °F 50 °F 65 °F (1967)
Min Temperature 44 °F 35 °F 23 °F (2000)
Degree Days  
Heating Degree Days 19    
Moisture  
Dew Point 41 °F    
Average Humidity 80    
Maximum Humidity 90    
Minimum Humidity 71    
Precipitation  
Precipitation 0.76 in - - ()
Sea Level Pressure  
Sea Level Pressure 29.90 in    
Wind  
Wind Speed 6 mph (ENE)    
Max Wind Speed 15 mph    
Max Gust Speed 24 mph    
Visibility 9 miles    
Events Rain    
Averages and records for this station are not official NWS values.
T = Trace of Precipitation, MM = Missing Value Source: NWS Daily Summary

Daily Weather History Graph

Daily Weather History Graph

Search for Another Location

Airport or City:

Trip Planner

Search our weather history database for the weather conditions in past years. The results will help you decide how hot, cold, wet, or windy it might be!

Date:

Astronomy

Oct. 02, 2013 Rise Set
Actual Time 7:51 AM AKDT 7:09 PM AKDT
Civil Twilight 7:09 AM AKDT 7:51 PM AKDT
Nautical Twilight 6:19 AM AKDT 8:40 PM AKDT
Astronomical Twilight 5:27 AM AKDT 9:32 PM AKDT
Moon 5:06 AM AKDT (10/2) 6:08 PM AKDT (10/2)
Length of Visible Light 12h 42m
Length of Day
11h 18m
Waning Crescent, 5% of the Moon is Illuminated
Oct 2
Waning Crescent
Oct 4
New
Oct 11
First Quarter
Oct 18
Full
Oct 26
Last Quarter

Hourly Weather History & Observations

Time (AKDT) Temp. Windchill Dew Point Humidity Pressure Visibility Wind Dir Wind Speed Gust Speed Precip Events Conditions
12:53 AM 46.0 °F 44.8 °F 39.9 °F 79% 29.88 in 10.0 mi East 3.5 mph - 0.00 in Rain Light Rain
1:53 AM 46.9 °F - 41.0 °F 80% 29.88 in 10.0 mi ENE 5.8 mph - 0.03 in Rain Light Rain
2:53 AM 46.9 °F - 41.0 °F 80% 29.88 in 10.0 mi NE 6.9 mph - 0.00 in   Overcast
3:53 AM 46.0 °F - 39.9 °F 79% 29.87 in 10.0 mi Calm Calm - 0.00 in   Mostly Cloudy
4:53 AM 44.1 °F - 39.9 °F 85% 29.87 in 10.0 mi Calm Calm - N/A   Overcast
5:53 AM 48.0 °F - 39.9 °F 74% 29.86 in 10.0 mi ENE 9.2 mph 17.3 mph 0.01 in Rain Light Rain
6:53 AM 48.9 °F - 39.9 °F 71% 29.87 in 10.0 mi East 10.4 mph 17.3 mph 0.00 in   Overcast
7:53 AM 48.0 °F - 42.1 °F 80% 29.90 in 9.0 mi ESE 9.2 mph - 0.03 in Rain Light Rain
8:53 AM 46.0 °F 41.4 °F 41.0 °F 83% 29.91 in 8.0 mi East 9.2 mph 23.0 mph 0.05 in Rain Light Rain
9:53 AM 44.1 °F 38.6 °F 37.9 °F 79% 29.91 in 10.0 mi ENE 10.4 mph 19.6 mph 0.03 in Rain Light Rain
10:53 AM 45.0 °F 41.2 °F 39.0 °F 80% 29.92 in 9.0 mi Variable 6.9 mph - 0.01 in Rain Light Rain
11:53 AM 45.0 °F 41.2 °F 39.9 °F 82% 29.92 in 10.0 mi ENE 6.9 mph - 0.08 in   Overcast
12:53 PM 46.0 °F 41.0 °F 39.9 °F 79% 29.93 in 9.0 mi ENE 10.4 mph - 0.01 in Rain Light Rain
1:15 PM 46.4 °F 41.5 °F 41.0 °F 81% 29.93 in 10.0 mi ENE 10.4 mph 16.1 mph 0.00 in   Mostly Cloudy
1:53 PM 48.0 °F - 39.9 °F 74% 29.93 in 10.0 mi ENE 6.9 mph - 0.00 in   Mostly Cloudy
2:53 PM 48.9 °F - 39.9 °F 71% 29.93 in 10.0 mi ENE 6.9 mph - 0.00 in Rain Light Rain
3:53 PM 48.9 °F - 42.1 °F 77% 29.91 in 10.0 mi East 5.8 mph - 0.02 in Rain Light Rain
4:53 PM 48.0 °F - 44.1 °F 86% 29.92 in 6.0 mi Calm Calm - 0.05 in Rain Rain
5:53 PM 46.0 °F 43.1 °F 42.1 °F 86% 29.92 in 7.0 mi ENE 5.8 mph - 0.15 in Rain Rain
6:53 PM 45.0 °F 42.6 °F 42.1 °F 90% 29.90 in 8.0 mi NNE 4.6 mph - 0.12 in Rain Light Rain
7:53 PM 46.0 °F 43.1 °F 42.1 °F 86% 29.89 in 10.0 mi Variable 5.8 mph - 0.08 in Rain Light Rain
8:36 PM 48.2 °F - 42.8 °F 82% 29.89 in 6.0 mi East 11.5 mph 17.3 mph 0.05 in Rain Light Rain
8:53 PM 46.9 °F - 43.0 °F 86% 29.90 in 4.0 mi ESE 15.0 mph 24.2 mph 0.08 in Rain Rain
9:53 PM 48.0 °F - 43.0 °F 83% 29.91 in 10.0 mi East 10.4 mph 18.4 mph 0.01 in   Overcast
10:53 PM 46.9 °F - 41.0 °F 80% 29.90 in 10.0 mi ENE 5.8 mph - N/A   Overcast
11:53 PM 46.9 °F - 39.9 °F 77% 29.89 in 10.0 mi ENE 12.7 mph 20.7 mph 0.00 in Rain Light Rain